Lid_Strength_Index
16 15 15 15 16 16 17 18 18 19 18 20 20 19 20 19 21 20 21 21 21 22 22 22 23 22 23 23 23 23 23 23 22 22 22 22 21 22 21 21 21 21 21
16 16 16 16 17 18 19 19 19 19 20 20 20 20 20 21 22 22 22 22 22 23 22 23 24 22 24 24 24 24 23 23 23 23 21 20 21 21 22 23 22 21 22
16 16 16 17 18 19 20 20 19 20 20 20 20 21 22 22 22 22 22 23 23 23 23 23 23 23 23 23 23 22 21 21 22 22 23 22 22 22 23 23 23 23 21
17 17 17 17 19 19 19 19 20 20 20 22 22 22 22 23 23 24 24 24 24 24 23 22 21 20 21 21 21 22 21 22 22 23 23 24 24 23 24 25 25 23 24
17 18 19 18 19 19 19 19 20 20 20 20 20 21 22 23 23 25 25 25 25 24 21 20 19 18 17 18 21 22 22 22 23 23 24 25 25 25 26 25 25 24 24
19 20 19 19 19 20 20 20 20 20 20 21 21 21 22 21 20 20 22 23 22 21 21 21 20 20 19 18 19 20 20 22 23 24 25 25 25 25 25 25 24 25 27
20 20 20 20 20 21 20 20 20 21 20 21 21 21 21 20 18 18 19 22 22 22 22 22 21 20 21 22 21 21 22 21 20 22 25 25 25 24 24 24 24 25 26
20 21 20 21 21 21 21 22 22 22 21 21 20 19 19 18 17 18 19 22 23 23 23 23 22 21 20 22 23 24 24 23 22 22 23 23 23 22 22 23 24 25 25
22 22 22 22 22 22 22 22 21 20 20 20 19 19 18 18 17 18 20 22 23 24 23 24 23 22 19 18 23 24 24 23 21 20 20 20 19 19 20 22 26 28 29
22 21 21 21 21 21 21 21 20 20 20 20 20 21 21 19 16 18 20 22 23 23 23 24 21 21 18 18 22 24 25 24 25 25 26 26 24 25 21 24 26 28 28
20 21 21 21 21 21 21 21 21 22 22 22 22 22 22 21 18 16 17 21 22 23 24 24 24 20 19 19 19 24 23 21 27 30 29 29 28 27 25 24 24 25 27
22 22 23 23 21 22 24 23 24 24 24 25 25 24 23 22 18 18 17 18 19 23 24 24 24 20 20 20 22 20 20 23 30 32 33 31 29 27 25 24 23 23 23
25 26 25 24 22 23 25 25 26 26 26 26 25 26 26 23 23 19 19 18 19 22 23 22 22 22 22 24 23 22 26 31 31 34 32 30 28 26 25 25 24 24 24
28 27 26 25 25 25 23 23 26 27 27 26 26 28 28 25 24 23 22 23 20 21 22 28 26 24 24 25 29 28 29 29 30 31 30 29 27 27 26 25 26 25 26
27 26 26 26 27 26 25 25 24 24 25 29 30 29 30 30 24 19 20 22 22 21 30 36 35 34 32 31 31 31 31 31 32 31 30 30 29 28 27 26 26 26 28
27 27 27 27 28 27 27 27 20 19 18 19 20 24 24 21 19 18 18 18 20 21 37 38 36 34 33 32 32 31 31 31 31 30 30 30 30 29 29 27 27 27 28
28 27 28 27 28 29 30 30 29 26 20 20 20 20 20 20 20 19 19 20 23 27 37 39 37 34 33 32 33 32 32 31 30 31 30 30 30 30 29 29 28 27 27
30 29 28 28 29 32 32 32 33 33 32 31 25 22 21 21 20 20 20 27 36 35 40 40 36 35 34 34 33 33 32 31 31 30 30 31 30 30 30 28 27 27 27
31 30 30 32 33 32 34 35 36 36 35 36 36 28 27 22 22 21 24 36 38 39 40 38 37 35 34 34 33 33 33 32 31 31 31 31 30 29 28 27 27 26 26
31 30 31 32 35 35 34 33 34 33 35 34 34 33 33 35 35 36 38 40 41 37 35 35 33 34 35 34 34 34 33 32 31 31 31 30 28 27 27 27 26 26 26
30 32 31 34 34 32 33 32 31 32 32 33 32 31 26 30 29 34 36 36 36 35 34 33 33 34 34 34 35 33 33 32 31 31 30 29 27 27 26 25 25 25 25
29 29 31 32 31 33 32 31 32 32 31 31 30 33 23 31 33 34 33 31 32 34 33 34 33 33 33 33 33 33 32 32 31 31 29 27 26 27 26 26 26 25 25
29 30 31 32 31 31 31 30 30 30 29 29 29 29 28 29 30 31 30 30 31 32 32 35 35 34 32 33 32 32 32 31 30 30 30 29 28 28 27 26 26 26 24
28 28 28 29 30 30 29 29 28 28 28 28 27 27 27 27 28 28 28 29 31 32 32 33 34 34 32 32 31 30 30 30 30 29 28 28 29 27 27 25 22 20 18
27 27 27 27 27 28 27 27 26 26 26 27 26 26 26 27 27 28 27 29 32 32 32 33 33 33 33 32 31 30 29 29 30 29 27 26 24 22 21 21 19 18 17
26 26 26 26 26 26 26 26 25 25 25 24 25 25 25 25 26 26 27 31 32 32 32 32 32 33 32 31 30 28 27 24 24 21 21 21 21 20 19 18 18 17 17